User: anonymous   Login
Location: Aciu?a
(46.2833°N, 22.4500°E)
Time: 18:58:21
(UTC+00:00)
Language:

Cosmos 1455 - Orbit

View from above orbital plane
View from above orbital plane
View from above satellite
View from above satellite

Ground track
Ground track

The orbit data is extracted from the following two-line orbital elements,

1 14032U 83037A   22017.10590311  .00002747  00000-0  12779-3 0  9992
2 14032  82.5135 230.6849 0015612 207.8999 152.1400 15.19437816115484
Epoch (UTC): 17 January 2022 02:32:30
Eccentricity: 0.0015612
inclination: 82.5135°
perigee height: 497 km
apogee height: 518 km
right ascension of ascending node: 230.6849°
argument of perigee: 207.8999°
revolutions per day: 15.19437816
mean anomaly at epoch: 152.1400°
orbit number at epoch: 11548

The dashed part of the orbit path shows where the satellite is in the earth's shadow,  

DLR